Regional Weather Roundup
Issued by NWS

Home | Current Version | Previous Version | Text Only | Print | Product List | Glossary On
Versions: 1 2 3 4 5 6 7 8 9 10 11 12 13 14 15 16 17 18 19 20 21 22 23 24 25 26 27 28 29 30 31 32 33 34 35 36 37 38 39 40 41 42 43 44 45 46 47 48 49 50
000
ASUS43 KMKX 252311
RWRWI

WISCONSIN REGIONAL WEATHER ROUNDUP
NATIONAL WEATHER SERVICE MILWAUKEE/SULLIVAN WI
600 PM CDT SAT MAR 25 2017

NOTE: "FAIR" INDICATES FEW OR NO CLOUDS BELOW 12,000 FEET WITH NO
SIGNIFICANT WEATHER AND/OR OBSTRUCTIONS TO VISIBILITY.

WIZ001-002-006>008-014>016-023>028-260000-
NORTHWEST WISCONSIN

CITY           SKY/WX    TMP DP  RH WIND       PRES   REMARKS
SUPERIOR ARPT  CLOUDY    33  31  90 E15G22    30.19S WCI  23
ASHLAND        CLOUDY    34  29  82 NE12      30.19F WCI  25
HAYWARD        CLOUDY    45  29  53 NE10      30.12S
SIREN          CLOUDY    45  31  57 SE7       30.10S
CUMBERLAND     CLOUDY    41  30  65 E10       30.09S
RICE LAKE      CLOUDY    41  32  70 CALM      30.11S
CHETEK         CLOUDY    40  32  73 E5        30.10S
LADYSMITH      CLOUDY    41  32  70 E9        30.12S
EAU CLAIRE     CLOUDY    40  33  76 NE14      30.08S WCI  32
MENOMONIE      CLOUDY    40  35  83 NE9       30.08S HAZE    WCI  34
NEW RICHMOND   CLOUDY    41  32  70 E8        30.08S
OSCEOLA        CLOUDY    43  33  68 NE10      30.11S
$$

WIZ003>005-009-010-017-018-260000-
NORTH CENTRAL WISCONSIN

CITY           SKY/WX    TMP DP  RH WIND       PRES   REMARKS
MANITOWISH WTR CLOUDY    37  32  82 E8        30.14S WCI  30
ARBOR VITAE    CLOUDY    39  31  72 E6        30.13S WCI  35
WOODRUFF       CLOUDY    39  31  72 E6        30.13S WCI  35
RHINELANDER    CLOUDY    39  30  70 E13       30.14S WCI  31
EAGLE RIVER    CLOUDY    38  29  70 E9        30.14S WCI  31
LAND O LAKES   CLOUDY    37  30  77 E6        30.17F WCI  32
PHILLIPS       CLOUDY    39  31  73 E10G17    30.11F WCI  32
TOMAHAWK       CLOUDY    38  30  73 E7        30.13S WCI  32
MEDFORD        CLOUDY    37  31  82 E12       30.09S WCI  29
MERRILL        CLOUDY    38  31  77 E9        30.12S WCI  31
$$

WIZ029-030-035-036-043>047-260000-
CENTRAL WISCONSIN

CITY           SKY/WX    TMP DP  RH WIND       PRES   REMARKS
WAUSAU         CLOUDY    36  30  79 E14G21    30.10F WCI  27
MOSINEE        LGT RAIN  36  34  93 E17       30.11F WCI  25
MARSHFIELD     LGT RAIN  36  32  85 E14       30.08S FOG     WCI  27
STEVENS POINT  LGT RAIN  32  32 100 E10       30.12R WCI  24
WAUPACA        LGT RAIN  37  34  90 NE8G20    30.13S WCI  30
WAUTOMA        MIX PCPN  36  34  92 NE13      30.11R FOG     WCI  27
WISC RAPIDS    LGT RAIN  35  34  96 E15G26    30.11R FOG     WCI  25
CAMP DOUGLAS   CLOUDY    36  35  96 E10G18    30.07S FOG     WCI  29
$$

WIZ011>013-019>022-031-037>040-048>050-260000-
NORTHEAST WISCONSIN

CITY           SKY/WX    TMP DP  RH WIND       PRES   REMARKS
ANTIGO         CLOUDY    33  29  86 E14G20    30.14S WCI  23
SHAWANO        CLOUDY    35  32  87 NE12      30.16F WCI  27
OCONTO         CLOUDY    34  31  88 NE14      30.17F WCI  25
STURGEON BAY   MIX PCPN  35  32  88 NE10      30.17F WCI  27
GREEN BAY      CLOUDY    35  34  96 NE18      30.15S FOG     WCI  24
MANITOWOC      LGT RAIN  38  36  92 NE9       30.13S WCI  31
APPLETON       LGT RAIN  36  36 100 NE13G23   30.10F WCI  27
CLINTONVILLE   LGT RAIN  34  32  93 NE10      30.15S WCI  26
OSHKOSH        LGT RAIN  36  35  96 NE10      30.10S VSB 1   WCI  28
$$

WIZ032>034-041-042-053>061-260000-
SOUTHWEST WISCONSIN

CITY           SKY/WX    TMP DP  RH WIND       PRES   REMARKS
LA CROSSE      LGT RAIN  40  36  86 NE9       30.05S WCI  34
SPARTA         CLOUDY    37  36  96 NE13G22   30.07S FOG     WCI  28
VIROQUA        CLOUDY    37  37 100 E20       30.00F WCI  26
BOSCOBEL       CLOUDY    41  38  89 NE9G18    30.01S FOG
PRAIRIE DU CHI CLOUDY    39  38  97 E12G17    29.99S FOG     WCI  32
PLATTEVILLE    CLOUDY    40  40 100 E16G24    29.97S WCI  32
$$

WIZ056-057-062-063-064-067-068-260000-
SOUTH CENTRAL WISCONSIN

CITY           SKY/WX    TMP DP  RH WIND       PRES   REMARKS
REEDSBURG      CLOUDY    36  36 100 E14       30.04F FOG     WCI  27
BARABOO/DELLS  CLOUDY    36  35  96 E16       30.04F FOG     WCI  26
LONE ROCK      CLOUDY    39  37  92 E15       30.03S FOG     WCI  31
MINERAL POINT  CLOUDY    39  39 100 E15       29.98R FOG     WCI  31
MADISON        CLOUDY    39  37  92 E17       30.03F WCI  30
MIDDLETON      CLOUDY    40  39  96 E12G22    30.03F WCI  33
WATERTOWN      CLOUDY    38  38 100 E13G18    30.04S WCI  31
MONROE         CLOUDY    39  37  93 NE14G21   29.98S WCI  31
JANESVILLE     CLOUDY    41  41 100 E15       29.99F
$$

WIZ051-052-058>065-066-070>072-260000-
SOUTHEAST WISCONSIN

CITY           SKY/WX    TMP DP  RH WIND       PRES   REMARKS
MILWAUKEE      CLOUDY    39  37  92 NE13      30.06F WCI  31
WAUKESHA       CLOUDY    36  36 100 E15G21    30.06F WCI  26
MILWAUKEE/TIMM DRIZZLE   37  36  93 NE9G16    30.07F WCI  31
RACINE         CLOUDY    39  37  92 NE12      30.07S WCI  32
KENOSHA        CLOUDY    40  39  97 NE12      30.03F FOG     WCI  33
FOND DU LAC    LGT RAIN  38  35  89 E14       30.09S FOG     WCI  30
SHEBOYGAN      CLOUDY    38  35  89 NE13      30.11S WCI  30
WEST BEND      CLOUDY    36  36 100 NE15      30.08S WCI  26
JUNEAU         LGT RAIN  37  36  96 NE13      30.07S WCI  29
$$

LSZ147-162-260000-
LAKE SUPERIOR

STATION/POSITION TIME  TEMP    WIND        PRES    WAVE
                       AIR SEA DIR/SP/G            HT/PER
                 (UTC) (F)     (DEG/KT/KT) (MB)    (FT/S)
DEVILS ISLAND    2300   32      80/ 23/ 26 1024.1F
PORT WING        2240   34      40/ 17/ 19 1022.7S
SAXON HARBOR     2240   34      50/ 16/ 19 1022.0S
$$

LMZ867-665-643>646-260000-
LAKE MICHIGAN

STATION/POSITION TIME  TEMP    WIND        PRES    WAVE
                       AIR SEA DIR/SP/G            HT/PER
                 (UTC) (F)     (DEG/KT/KT) (MB)    (FT/S)
CHAMBERS ISLAND  2240   34      30/ 14/ 16 1022.4F
NORTHPORT PIER   2240   34      60/ 16/ 18 1023.0F
SISTER BAY       2236   35     110/  7/ 13   N/A
KEWAUNEE LAKESHO 2242   36      50/ 14/ 18 1020.3F
SHEBOYGAN LAKESH 2300   37      20/ 13/ 14 1020.1R
PORT WASHINGTON  2230   38      40/ 12/ 15 1020.3S
MILWAUKEE LAKESH 2250   38      20/ 14/ 15   N/A
KENOSHA   LAKESH 2300   38      20/ 16/ 17 1017.3
$$

TC  - TEMPERATURE IN CELSIUS
VSB - VISIBILITY IN STATUTE MILES
WCI - WIND CHILL INDEX
HX  - HEAT INDEX




USA.gov is the U.S. government's official web portal to all federal, state and local government web resources and services.